Epoch 2009 Sept. 6.0 TT = JDT 2455080.5
T 2009 Sept. 8.96788 TT                                 MPC
q   1.2239801            (2000.0)            P               Q
n   0.12586849     Peri.  246.74442     +0.95800287     -0.22223952
a   3.9432837      Node   125.62197     +0.26560771     +0.92589799
e   0.6896038      Incl.   12.88144     -0.10808811     +0.30548732
P   7.83
Residuals in seconds of arc
010621 704  0.5-  0.0     010814 213  0.4-  0.3+    011227 844  0.5+  1.0+
010621 704  0.2+  0.0     010817 232 (0.0   4.8-)   011227 844 (0.3-  2.3+)
010621 704  0.1+  0.0     010817 232  1.3+  0.7+    020101 349  0.0   0.4+
010621 704  0.4-  0.2+    010817 939  0.3+  0.7+    020101 349  0.3-  0.0
010621 704  1.4-  0.8+    010817 939  1.4-  0.0     020101 349  0.3-  0.1+
010624 704  0.1-  0.9+    010818 704  0.7+  0.7+    020101 349  0.1+  0.1-
010624 704  0.0   0.1+    010818 704  0.0   0.1+    020101 235  1.2+  1.5+
010624 704  0.6-  0.8+    010818 704  0.4+  0.4+    020102 428  0.1-  0.2-
010624 704  0.4-  0.6+    010818 704  0.1-  0.6-    020102 235  0.3+  0.9+
010624 704  1.1-  1.0+    010818 704  0.2+  0.6-    020103 349  0.2+  0.4-
010710 704 (3.8-  0.2-)   010819 704  0.9+  0.3+    020103 349  0.3+  0.0
010710 704 (2.3-  0.2-)   010819 704  1.0+  0.3+    020103 349  0.0   0.2-
010710 704 (3.2-  0.7-)   010819 704  1.3+  0.5+    020103 349  0.2+  0.1+
010710 704 (2.7-  1.2-)   010819 704  1.3+  0.2-    020103 613 (2.8+  4.0+)
010711 704  0.2+  0.1+    010819 704  1.0+  0.7-    020103 613 (2.4+  2.5+)
010711 704  0.3+  0.1+    010819 428  0.9+  0.1+    020104 235  0.0   1.6+
010711 704  0.8-  1.0+    010819 428  0.7+  0.2+    020104 613  1.7+  1.7+
010711 704  1.0+  1.0+    010822 349  0.4+  0.5+    020104 613  1.0+  1.0+
010711 938  0.5-  0.2-    010822 349  0.4+  0.1+    020105 360  0.3-  0.7-
010711 938  0.9-  0.7-    010822 349  0.0   0.2+    020105 360  0.4-  0.8-
010711 952  0.6-  1.6-    010822 213  0.5+  0.4-    020106 235  1.3+  1.8+
010711 938  0.1+  1.1-    010822 213  1.2-  0.5-    020106 213  0.9-  0.5+
010711 952  0.9+  1.0-    010822 213  0.0   0.7-    020106 213  0.8+  0.5+
010711 952 (2.1+  0.2-)   010822 213  0.6+  0.8+    020106 213  0.4+  0.0
010711 938  0.0   0.6+    010823 402  0.1+  0.6-    020109 613  1.2+  1.6+
010711 938  0.4-  0.3+    010823 402  0.1-  0.2-    020109 613 (1.3+  2.0+)
010711 938  0.4-  0.7+    010823 402  0.0   0.1+    020109 613  1.3+  2.0+
010711 198  0.8+  0.1-    010824 704  0.0   0.7-    020111 213  0.5-  0.9+
010711 198  0.9+  0.0     010824 704  0.6-  1.4-    020111 213  1.6-  0.4+
010712 808  0.9+  1.2+    010824 704  0.0   1.0-    020111 213  1.4-  0.5+
010712 808 (2.6+  2.2+)   010824 704  0.5+  0.8-    020112 349  0.4-  0.4-
010712 808  0.4-  0.8+    010824 704  0.5+  0.6-    020112 349  0.4+  0.4-
010712 704  0.2+  0.1-    010905 170  0.5-  1.5-    020112 349  0.3+  0.3+
010712 704  0.4-  0.0     010905 170  1.6-  1.6+    020112 349  0.0   0.1+
010712 704  0.4+  0.0     010905 213  1.0+  0.3-    020112 235  1.0+  1.4+
010712 704  0.7-  0.4-    010905 213  0.2-  0.3+    020112 232  1.6-  0.1+
010712 596  0.7-  0.4-    010905 213  0.6-  0.2-    020112 232  0.9-  0.0
010712 596  0.5-  0.2-    010905 213 (1.3+  3.4-)   020112 445 (4.9-  2.6+)
010712 557 (2.1+  0.3+)   010908 232 (5.5-  0.5+)   020112 445 (3.2-  7.8+)
010712 557 (2.2+  0.4+)   010908 232  1.3-  1.0+    020114 939  0.0   0.1-
010712 557 (2.0+  0.5+)   010908 232  1.8+  1.4+    020114 939  0.1-  0.0
010712 596 (2.3-  3.0-)   010908 232  0.5-  0.1-    020114 232  0.1+  0.6+
010712 938 (0.6-  2.7+)   010908 232  0.9-  0.5+    020114 939  0.2-  0.1-
010712 938  0.2+  0.5+    010908 232  1.6+  0.5+    020114 232  1.4-  1.0+
010712 470  0.3-  1.0+    010915 170  0.8+  0.5-    020117 428  0.1+  0.1-
010712 470  0.3-  0.7+    010915 170  0.2+  0.3+    020117 428  0.5-  0.2-
010712 938  0.6-  1.0+    010915 170  1.4+  1.4-    020117 428  0.3+  0.3+
010712 165  0.6-  0.0     010915 170  0.8+  0.1+    020117 428  0.1+  0.3-
010712 165  1.4+  0.7-    010916 360  0.2-  0.1-    020117 235  1.1+  1.5+
010712 165 (2.9+  0.9-)   010916 360  0.4-  0.5-    020118 235 (2.8+  1.0+)
010712 157  0.6-  0.3+    010918 921  1.4+  1.6-    020120 232 (2.0+  8.0-)
010712 157  0.5-  0.3+    010918 921  0.5+  0.3+    020120 232  1.7+  0.2-
010712 157  0.4-  0.2-    010918 921  1.9+  1.0+    020126 232  0.4-  0.3+
010712 938  0.1+  0.1-    010919 402  0.1+  0.4+    020126 232  0.2-  1.1-
010712 938  0.3-  0.4+    010919 402  0.1-  0.2+    020126 170  0.2+  0.0
010712 938  0.1+  0.7+    010919 402  0.2-  0.4+    020126 170  0.9+  0.3+
010713 170  0.1-  0.0     010919 322  1.2-  0.3-    020126 445 (6.1-  4.9-)
010713 170  0.3-  0.3+    010919 322  0.3-  0.4-    020126 445 (0.3+  5.0-)
010713 170  0.6+  0.2-    010922 349  1.8+  0.5+    020201 360  0.8-  0.0
010713 170  1.0-  0.2+    010922 349  0.9+  0.7+    020201 360  0.7-  0.3-
010713 921  1.2+  0.6-    010922 349  1.5+  0.6+    020201 232  0.0   0.1+
010713 921 (3.3+  0.2-)   010922 349  1.6+  0.5+    020201 213  1.8-  0.5+
010713 941  1.1-  0.3-    010925 921  1.0+  0.6-    020201 213  0.0   0.3+
010713 941  1.0-  1.3-    010925 921  0.9+  1.7-    020201 213  0.7+  1.1-
010713 170  1.5-  0.0     010925 921  0.8-  0.8-    020201 232  1.3-  0.0
010713 170  0.2+  0.5-    010925 322  0.4-  0.7-    020202 613  0.2-  0.2-
010713 213  0.8+  1.4-    010925 322  0.3-  0.3-    020202 613  0.1+  0.4+
010714 348  1.3+  0.3+    011002 306  1.3+  0.4+    020202 613  1.1-  0.3+
010714 342  0.1-  0.2+    011002 306 (2.5+  0.5+)   020202 613  0.3-  0.2+
010714 348  0.5+  0.1-    011002 306  0.5+  0.4+    020202 215  0.2-  0.2-
010714 348  1.6+  0.5+    011002 306  0.4+  0.2-    020202 215  0.2-  0.6+
010714 372  0.0   0.1+    011005 844  1.0+  0.9+    020202 215  0.2-  0.3+
010714 342  0.7-  0.1-    011005 844  0.1+  0.8+    020203 046  0.5-  0.4-
010714 372  0.1+  0.3+    011005 844  0.3+  0.5+    020203 046  0.5-  0.0
010714 046  0.5-  0.2+    011012 360  0.4-  0.4-    020203 046  0.6-  0.2-
010714 046  0.5-  0.2+    011012 360  0.3-  0.4-    020203 046  0.3-  0.3-
010714 046  0.7-  0.2-    011013 349  0.3-  1.4+    020203 235 (4.5+  3.0+)
010714 046  0.5-  0.0     011013 349  1.0-  1.6+    020203 113  0.2-  0.2-
010716 213  1.4+  0.3-    011013 349  0.9-  0.5+    020203 113  0.2-  0.3-
010716 213  0.7+  0.4-    011014 235  1.5+  1.5-    020203 113  0.1-  0.1-
010716 213  1.1-  1.3-    011025 402  0.1-  0.1+    020203 113  0.5+  0.4-
010717 204  0.8-  0.2+    011025 402  0.1-  0.1+    020203 113  0.2+  0.2+
010717 204  0.3-  0.2+    011025 402  0.2-  0.1+    020204 349  0.6+  0.8-
010722 360  0.0   0.5-    011104 349  0.3+  0.4-    020204 349  0.1-  0.6-
010722 360  0.5-  0.3-    011104 349  0.1+  0.4-    020204 349  0.4+  0.0
010722 360  0.5-  0.1-    011104 349  0.3-  0.3-    020207 235  0.9+  0.7+
010722 151  0.2-  0.6+    011104 349  0.1+  0.2-    020209 349  0.2+  0.3+
010722 151  0.7-  1.0+    011104 347  0.0   0.0     020209 349  1.1+  0.6-
010722 151  0.9+  0.8+    011104 347  0.1-  0.5+    020209 349  0.6+  1.0-
010722 170  1.4+  1.4+    011113 428  1.0-  0.0     020209 349  0.9+  0.4-
010722 151  0.0   1.0+    011113 428  1.0-  0.5+    020216 367  0.1-  0.1-
010722 170  0.0   1.3+    011113 428  0.7-  0.1-    020216 367  0.5-  0.3-
010722 170  0.5+  1.7+    011117 844  0.5-  0.5+    020216 367  0.1+  0.3-
010722 170  0.2-  0.6+    011117 844  0.7-  0.8-    020221 613  0.0   0.1-
010722 170  0.6-  0.8+    011117 844  0.3+  0.4+    020221 613  0.7-  1.0+
010722 470  0.6-  1.5+    011119 349  0.5-  0.2-    020221 213  0.5-  0.2-
010722 470  1.1-  0.6+    011119 349  0.4-  0.2-    020221 613  0.2-  0.6-
010724 170 (5.1-  4.7-)   011119 349  0.1+  0.1+    020221 213  1.2-  1.0-
010725 952  0.9+  1.2-    011119 349  0.2-  0.3-    020224 235  0.0   1.7+
010725 952  0.4-  0.2+    011122 360  0.3-  0.4-    020225 699 (5.5+  0.4+)
010725 952  0.6-  0.2-    011122 360  0.3-  0.5-    020225 699 (6.0+  0.3-)
010725 587  0.1-  0.3+    011123 349  0.2-  0.0     020225 699 (6.0+  0.8-)
010725 587  0.4-  0.2-    011123 349  0.4-  0.2+    020225 699 (3.8+  0.4+)
010727 213 (1.7-  2.4-)   011123 349  0.1-  0.4-    020302 232 (8.4+  2.0-)
010729 170  0.1+  0.9+    011127 644 (2.5+  1.5+)   020302 232 (3.1+  2.1-)
010729 170  0.6-  0.6-    011127 644  1.8+  1.1+    020302 613  1.7+  1.4+
010729 170  1.3-  0.6-    011127 644  0.8+  0.4+    020304 215  1.0-  0.1+
010801 322  1.1-  0.2-    011127 347  0.9-  1.0+    020304 215  0.6-  0.1-
010801 636  0.8+  0.5+    011127 347  0.7-  0.8+    020304 215  0.0   0.1-
010801 636  0.3-  0.4-    011127 347  0.9-  0.0     020307 704  1.9+  0.0
010806 952  1.4+  0.1-    011128 360  0.5-  0.1-    020307 704  1.6+  0.2+
010806 952  1.2+  0.5+    011128 360  0.5-  0.2-    020307 704  0.4+  1.1+
010806 952  0.4+  0.3+    011130 844  0.0   0.8-    020307 613  0.2+  0.1+
010807 428  0.2-  0.0     011130 844  0.7+  0.6-    020309 349  1.4+  1.1-
010807 428  0.7+  0.0     011130 844  0.2-  0.5-    020309 349  0.4+  1.0-
010807 428  0.4-  0.3-    011202 349  0.8-  0.0     020309 349 (0.8+  2.1-)
010807 952  0.8+  0.1+    011202 349  0.3-  0.6-    020309 367  0.6-  0.1+
010807 952  0.6+  0.4-    011202 349  0.8-  0.7-    020309 367  0.1+  0.3-
010807 952  0.3+  0.4-    011202 349  1.0-  0.7-    020309 235 (2.4+  2.1+)
010809 844  0.3-  0.4-    011206 213  0.0   0.1-    020310 235 (2.2+  2.4+)
010809 844  0.6+  0.4+    011206 213  0.4-  0.5-    020310 613  0.2+  0.3+
010809 844  0.1-  0.4-    011208 349  0.1+  0.3-    020310 A46  0.2+  0.8+
010810 704  0.8-  0.7-    011208 349  0.4-  0.5-    020310 A46 (2.2+  0.8-)
010810 704  0.5-  1.0-    011208 349  0.5-  0.6-    020310 A46 (2.4+  1.3+)
010810 704  0.3-  0.7-    011208 349  0.1-  0.4-    020310 A46  0.0   0.8-
010810 704  1.0-  1.2-    011215 587  0.3-  0.5-    020310 613  0.3-  0.3-
010810 952  1.1+  0.7-    011215 587  0.4-  0.7-    020312 235 (0.2+  2.6+)
010810 952  1.2-  0.7+    011215 587  0.4-  0.5-    020316 360  0.0   0.4-
010810 952 (3.0-  0.5-)   011216 170  1.1-  0.1+    020316 360  0.6+  0.8-
010811 213 (2.1-  2.0-)   011216 235 (2.4+  1.7+)   020331 232  0.9+  0.5-
010811 213  1.0-  1.5-    011216 170  0.1-  0.0     020331 232  0.5-  0.1+
010811 213  0.6-  0.3-    011218 235  1.7+  0.1+    020406 215 (1.5+  2.5+)
010812 213 (1.2-  3.8-)   011222 349  0.2-  0.0     020406 215  0.3-  1.4-
010812 213  0.7-  1.0-    011222 349  0.1+  0.3-    090317 H06 (0.3-  3.3-)
010812 213 (6.1-  2.2+)   011222 349  0.1+  0.1-    090317 H06  1.6-  0.1-
010812 213 (3.2-  0.7-)   011222 349  0.2+  0.3-    090318 H06  2.0-  0.2+
010812 170 (5.5-  7.4+)   011222 213  1.3+  1.5-    090318 H06 (1.9-  3.0-)
010814 213  0.9+  1.5-    011222 213  0.1-  0.4+    090320 E16  1.2+  0.3-
010814 213  0.1+  1.0-    011222 213  0.4+  0.6-    090320 E16  1.1+  0.2-
010814 213  0.7-  1.3-    011222 213  1.1-  1.4-    090320 E16  1.2+  0.0
010814 213  0.1+  1.8-    011227 844  0.6-  0.3-

